Temp
-12 -11 -12 -12 -12 -12 -11 -11 -10 -9 -8 -8 -8 -8 -8 -8 -8 -7 -7 -8 -9 -8 -9 -9 -9 -9 -9 -9 -9 -9 -10 -10 -9 -9 -9 -9 -9 -9 -8 -7 -6 -6 -6 -6 -7 -8 -7 -7 -5 -5 -7 -7 -5 -4
-12 -12 -12 -12 -12 -12 -12 -11 -11 -10 -9 -8 -8 -8 -8 -8 -8 -8 -8 -9 -9 -9 -9 -9 -9 -9 -9 -9 -9 -9 -10 -10 -10 -10 -10 -9 -10 -9 -8 -8 -7 -6 -7 -7 -7 -8 -9 -8 -7 -8 -7 -7 -6 -5
-12 -12 -12 -12 -12 -12 -12 -11 -11 -10 -10 -9 -9 -8 -8 -9 -8 -9 -9 -9 -9 -9 -9 -9 -9 -9 -9 -9 -9 -9 -10 -10 -10 -10 -10 -10 -10 -9 -9 -8 -8 -8 -8 -8 -8 -8 -8 -7 -7 -7 -8 -8 -7 -6
-12 -12 -12 -12 -12 -12 -12 -12 -11 -10 -10 -10 -9 -9 -9 -9 -9 -9 -9 -9 -9 -9 -10 -9 -9 -9 -9 -9 -9 -9 -10 -10 -10 -10 -10 -10 -10 -9 -9 -9 -8 -8 -8 -8 -9 -9 -9 -8 -8 -8 -8 -8 -8 -7
-12 -12 -12 -12 -12 -12 -12 -12 -11 -10 -10 -10 -10 -10 -10 -9 -10 -10 -10 -10 -10 -9 -9 -9 -9 -9 -9 -10 -10 -9 -9 -9 -9 -10 -10 -9 -9 -9 -9 -8 -8 -8 -8 -8 -10 -9 -9 -9 -8 -8 -8 -8 -7 -7
-13 -13 -13 -12 -13 -13 -13 -13 -12 -11 -11 -11 -11 -10 -10 -10 -10 -10 -11 -11 -10 -10 -9 -10 -9 -9 -10 -10 -10 -10 -10 -10 -9 -10 -9 -9 -9 -9 -9 -9 -9 -9 -9 -9 -9 -9 -9 -9 -9 -9 -8 -8 -8 -8
-13 -13 -13 -13 -13 -12 -13 -13 -12 -12 -12 -13 -12 -11 -11 -11 -10 -11 -11 -11 -11 -10 -10 -9 -9 -9 -10 -10 -10 -11 -11 -11 -10 -10 -9 -9 -9 -9 -9 -9 -9 -9 -9 -9 -9 -9 -9 -9 -9 -8 -8 -8 -8 -7
-14 -13 -13 -13 -13 -13 -13 -12 -12 -13 -13 -14 -14 -12 -11 -11 -11 -11 -12 -12 -11 -11 -11 -10 -10 -10 -10 -11 -11 -10 -11 -11 -10 -10 -9 -9 -9 -9 -9 -9 -9 -9 -9 -9 -9 -9 -9 -9 -9 -8 -7 -7 -7 -7
-14 -14 -14 -13 -13 -13 -13 -13 -14 -14 -14 -14 -14 -12 -11 -11 -11 -12 -12 -12 -12 -11 -11 -11 -10 -10 -10 -10 -10 -11 -11 -11 -11 -10 -9 -10 -9 -9 -8 -9 -9 -9 -9 -10 -10 -9 -9 -8 -8 -8 -7 -7 -8 -8
-14 -14 -14 -13 -13 -13 -13 -13 -14 -14 -14 -14 -13 -12 -11 -11 -12 -12 -12 -12 -11 -11 -11 -10 -10 -11 -10 -10 -10 -11 -11 -11 -10 -9 -9 -10 -10 -9 -9 -9 -9 -9 -9 -10 -10 -9 -9 -8 -8 -8 -8 -9 -8 -8
-15 -15 -14 -13 -13 -13 -14 -14 -14 -14 -14 -13 -13 -12 -12 -12 -12 -12 -12 -11 -11 -11 -10 -10 -10 -11 -10 -10 -10 -10 -11 -10 -10 -9 -9 -9 -9 -8 -9 -9 -8 -8 -9 -9 -9 -9 -9 -8 -9 -9 -9 -9 -9 -9
-15 -14 -14 -13 -13 -14 -14 -14 -14 -14 -13 -13 -13 -12 -12 -12 -12 -12 -12 -11 -11 -11 -11 -10 -10 -10 -10 -10 -10 -10 -10 -10 -9 -9 -9 -9 -8 -8 -8 -8 -8 -8 -8 -9 -9 -9 -9 -9 -9 -9 -9 -9 -9 -9
-15 -14 -14 -14 -14 -14 -14 -14 -14 -14 -13 -13 -13 -12 -12 -12 -11 -11 -11 -11 -11 -11 -11 -10 -11 -11 -11 -10 -10 -10 -10 -9 -9 -9 -9 -8 -8 -8 -8 -8 -8 -8 -8 -8 -9 -8 -8 -8 -9 -9 -9 -10 -10 -11
-15 -14 -14 -14 -14 -14 -14 -14 -14 -14 -13 -13 -12 -12 -12 -11 -11 -11 -11 -10 -11 -10 -10 -10 -11 -10 -10 -10 -10 -9 -9 -9 -9 -9 -8 -8 -8 -8 -8 -8 -8 -8 -8 -8 -9 -9 -9 -10 -10 -10 -10 -11 -12 -12
-15 -14 -14 -14 -14 -14 -14 -14 -14 -13 -13 -12 -12 -11 -11 -11 -10 -10 -11 -10 -10 -10 -10 -10 -10 -10 -10 -10 -9 -9 -9 -9 -8 -9 -8 -8 -8 -8 -8 -8 -8 -8 -8 -9 -9 -9 -10 -10 -11 -11 -12 -12 -13 -13
-15 -14 -14 -14 -14 -15 -15 -15 -14 -13 -13 -12 -12 -11 -11 -11 -10 -10 -10 -10 -10 -10 -10 -10 -10 -10 -10 -10 -9 -9 -9 -9 -8 -8 -8 -8 -8 -8 -8 -8 -9 -9 -9 -10 -10 -11 -11 -11 -12 -12 -12 -12 -13 -13
-15 -14 -15 -15 -14 -15 -15 -14 -13 -13 -13 -12 -11 -11 -10 -10 -10 -10 -10 -10 -10 -10 -10 -10 -9 -9 -9 -9 -9 -9 -9 -8 -8 -8 -8 -8 -9 -9 -9 -9 -10 -10 -10 -11 -11 -11 -11 -11 -12 -12 -13 -13 -13 -13
-15 -15 -15 -15 -15 -15 -14 -14 -14 -13 -13 -12 -11 -11 -10 -10 -10 -10 -10 -10 -10 -10 -10 -10 -9 -9 -9 -9 -9 -9 -9 -8 -8 -8 -8 -8 -9 -9 -9 -10 -10 -10 -10 -10 -11 -11 -12 -12 -12 -13 -13 -14 -14 -14
-15 -15 -14 -14 -14 -14 -14 -13 -13 -12 -11 -11 -11 -11 -10 -10 -10 -10 -10 -10 -10 -10 -10 -10 -9 -9 -9 -9 -9 -9 -8 -8 -9 -9 -9 -9 -9 -9 -10 -10 -10 -10 -11 -11 -12 -12 -12 -12 -13 -13 -13 -14 -14 -15
-14 -14 -15 -15 -14 -14 -13 -13 -13 -12 -11 -11 -11 -11 -10 -10 -10 -10 -10 -9 -10 -10 -10 -10 -9 -9 -9 -9 -9 -9 -9 -9 -9 -9 -9 -9 -9 -10 -10 -10 -10 -11 -11 -11 -12 -12 -12 -13 -14 -14 -15 -15 -16 -16
-15 -15 -14 -13 -13 -13 -13 -12 -12 -11 -11 -11 -11 -10 -10 -10 -10 -10 -10 -10 -10 -9 -9 -8 -8 -9 -9 -9 -9 -9 -9 -9 -9 -9 -9 -9 -10 -10 -10 -10 -10 -11 -11 -12 -12 -13 -13 -13 -14 -14 -15 -16 -17 -17
-14 -14 -14 -14 -13 -13 -12 -12 -12 -12 -11 -11 -10 -10 -10 -10 -10 -10 -10 -10 -9 -8 -8 -8 -9 -9 -9 -9 -9 -9 -9 -9 -9 -9 -9 -10 -10 -10 -10 -11 -11 -11 -12 -12 -12 -12 -13 -14 -15 -15 -16 -17 -17 -18
-13 -13 -13 -13 -12 -12 -12 -12 -12 -11 -11 -10 -11 -10 -10 -10 -10 -10 -10 -9 -8 -8 -8 -9 -9 -9 -9 -9 -9 -9 -9 -10 -10 -10 -10 -10 -10 -11 -11 -11 -11 -12 -12 -13 -13 -14 -14 -15 -16 -16 -17 -17 -18 -18
-13 -13 -13 -13 -12 -12 -12 -11 -11 -11 -11 -11 -10 -10 -10 -9 -9 -9 -9 -8 -8 -8 -8 -8 -8 -9 -9 -9 -10 -10 -10 -10 -10 -10 -11 -11 -11 -11 -11 -12 -12 -12 -13 -13 -14 -14 -15 -16 -16 -17 -18 -18 -18 -19
-14 -13 -12 -12 -12 -12 -11 -11 -11 -11 -11 -11 -11 -10 -10 -10 -9 -9 -8 -7 -8 -8 -8 -8 -9 -9 -9 -10 -10 -10 -10 -10 -11 -11 -11 -11 -12 -12 -12 -12 -13 -13 -13 -14 -14 -15 -16 -16 -17 -18 -18 -19 -19 -20
-12 -12 -12 -12 -12 -11 -11 -11 -11 -11 -10 -10 -10 -10 -10 -10 -10 -9 -8 -7 -8 -8 -8 -8 -9 -9 -9 -10 -10 -10 -10 -11 -11 -11 -12 -12 -12 -13 -13 -13 -14 -14 -14 -15 -15 -16 -16 -17 -18 -18 -19 -19 -20 -20
-12 -12 -11 -11 -11 -10 -11 -10 -10 -10 -10 -10 -10 -10 -10 -10 -9 -8 -8 -8 -8 -9 -8 -8 -9 -9 -9 -10 -10 -11 -11 -12 -12 -13 -13 -13 -13 -13 -13 -13 -14 -14 -15 -15 -16 -17 -17 -18 -19 -19 -20 -20 -21 -21
-12 -11 -11 -11 -11 -10 -10 -10 -10 -11 -10 -10 -10 -10 -10 -9 -9 -9 -9 -9 -8 -9 -9 -9 -9 -9 -10 -11 -12 -12 -12 -13 -13 -13 -13 -13 -14 -14 -14 -14 -15 -15 -15 -16 -17 -18 -18 -19 -19 -20 -20 -21 -21 -22
-12 -11 -11 -11 -11 -11 -11 -11 -10 -10 -10 -10 -10 -10 -10 -10 -10 -10 -10 -9 -9 -9 -9 -9 -9 -11 -11 -12 -12 -12 -12 -13 -14 -14 -14 -14 -14 -14 -15 -15 -15 -16 -16 -17 -18 -18 -19 -19 -20 -21 -21 -22 -22 -23
-11 -11 -11 -11 -11 -11 -10 -10 -10 -10 -10 -11 -11 -11 -10 -10 -11 -11 -11 -10 -10 -10 -10 -10 -10 -11 -12 -13 -13 -13 -13 -14 -14 -14 -15 -15 -15 -15 -15 -15 -16 -16 -17 -18 -19 -19 -20 -20 -21 -21 -22 -22 -23 -23
-11 -11 -11 -11 -11 -11 -11 -11 -11 -11 -11 -11 -11 -11 -11 -11 -11 -11 -11 -11 -11 -10 -11 -10 -11 -11 -12 -13 -13 -14 -14 -14 -15 -15 -15 -15 -15 -15 -15 -16 -16 -17 -18 -18 -19 -20 -20 -21 -21 -22 -22 -23 -23 -23
-12 -12 -12 -11 -11 -11 -11 -11 -11 -11 -11 -11 -11 -11 -11 -11 -12 -11 -11 -11 -11 -11 -11 -11 -11 -12 -13 -14 -14 -15 -15 -15 -15 -15 -15 -15 -15 -16 -16 -17 -17 -18 -19 -19 -20 -20 -21 -21 -22 -22 -23 -23 -23 -24
-13 -13 -12 -12 -12 -12 -12 -12 -12 -12 -12 -12 -12 -11 -12 -12 -12 -12 -12 -12 -12 -12 -12 -12 -13 -14 -14 -15 -15 -15 -15 -15 -15 -16 -16 -16 -16 -17 -17 -18 -18 -19 -19 -20 -20 -21 -21 -22 -22 -23 -23 -23 -23 -24
Height
2902 2907 2911 2916 2921 2926 2930 2935 2939 2942 2945 2949 2954 2957 2960 2964 2967 2969 2972 2974 2977 2978 2980 2983 2986 2989 2990 2991 2991 2992 2993 2993 2992 2992 2992 2991 2987 2984 2976 2971 2975 2976 2977 2976 2974 2975 2974 2970 2962 2961 2972 2973 2974 2974
2899 2904 2909 2914 2920 2924 2929 2934 2937 2941 2945 2949 2953 2956 2960 2963 2966 2969 2972 2974 2977 2981 2983 2985 2988 2989 2991 2991 2992 2992 2993 2992 2992 2992 2993 2992 2989 2984 2981 2976 2974 2973 2973 2974 2975 2978 2977 2974 2971 2971 2972 2973 2974 2974
2897 2903 2908 2914 2918 2923 2927 2931 2935 2939 2943 2948 2951 2955 2959 2963 2965 2969 2971 2974 2977 2980 2983 2986 2987 2990 2991 2991 2992 2992 2991 2992 2992 2992 2992 2992 2991 2988 2984 2980 2978 2977 2976 2975 2977 2980 2978 2975 2973 2973 2974 2974 2974 2974
2895 2901 2907 2912 2917 2921 2925 2929 2933 2936 2941 2946 2950 2954 2958 2962 2965 2968 2971 2973 2977 2980 2983 2985 2986 2988 2989 2990 2991 2991 2991 2990 2991 2991 2991 2991 2990 2990 2986 2984 2981 2980 2979 2978 2980 2979 2979 2979 2978 2977 2976 2976 2976 2976
2893 2899 2905 2910 2915 2919 2924 2928 2931 2935 2939 2944 2949 2953 2957 2961 2964 2968 2971 2973 2976 2981 2982 2984 2985 2987 2987 2988 2989 2989 2989 2989 2989 2989 2989 2990 2988 2988 2986 2984 2982 2980 2978 2978 2978 2978 2979 2979 2978 2978 2978 2979 2978 2977
2891 2897 2903 2909 2913 2918 2923 2927 2930 2934 2938 2943 2948 2953 2957 2961 2964 2967 2970 2972 2975 2978 2981 2983 2985 2985 2985 2985 2986 2986 2986 2987 2987 2987 2987 2988 2987 2987 2985 2984 2984 2982 2979 2977 2977 2977 2978 2978 2978 2978 2978 2979 2979 2979
2889 2895 2902 2908 2913 2918 2922 2926 2929 2933 2938 2943 2947 2952 2956 2960 2963 2966 2970 2972 2973 2976 2979 2982 2982 2984 2984 2984 2984 2984 2984 2984 2985 2985 2985 2986 2986 2986 2985 2984 2983 2982 2980 2979 2978 2978 2978 2978 2978 2978 2979 2980 2979 2979
2887 2894 2899 2906 2912 2918 2922 2924 2928 2933 2938 2943 2947 2951 2956 2959 2963 2966 2968 2970 2972 2975 2978 2979 2980 2982 2982 2982 2982 2981 2982 2982 2983 2983 2983 2983 2984 2984 2984 2983 2982 2981 2979 2979 2978 2978 2979 2979 2979 2978 2979 2980 2981 2979
2886 2892 2898 2905 2912 2917 2922 2924 2929 2934 2939 2944 2947 2951 2955 2959 2962 2966 2968 2971 2973 2977 2976 2977 2979 2980 2980 2979 2979 2980 2980 2980 2980 2979 2980 2982 2981 2981 2980 2980 2981 2980 2980 2979 2979 2978 2978 2979 2979 2980 2980 2980 2978 2977
2885 2890 2897 2904 2911 2916 2921 2926 2930 2936 2940 2944 2948 2953 2956 2960 2963 2966 2969 2971 2972 2973 2973 2973 2976 2977 2980 2978 2978 2980 2978 2978 2977 2977 2978 2978 2978 2977 2977 2977 2977 2977 2977 2977 2977 2978 2978 2979 2980 2979 2978 2976 2976 2975
2883 2888 2895 2903 2909 2916 2921 2927 2931 2936 2940 2945 2949 2953 2957 2960 2964 2966 2968 2970 2970 2970 2969 2970 2971 2973 2976 2977 2978 2978 2977 2977 2975 2976 2976 2976 2974 2974 2975 2975 2974 2974 2974 2975 2976 2976 2977 2977 2977 2976 2976 2975 2975 2974
2882 2888 2896 2903 2909 2916 2921 2926 2932 2937 2941 2946 2951 2954 2958 2961 2964 2967 2967 2968 2968 2969 2968 2969 2969 2971 2975 2976 2977 2977 2976 2976 2974 2975 2975 2973 2971 2971 2972 2973 2973 2973 2973 2974 2975 2975 2975 2975 2974 2974 2973 2972 2971 2970
2882 2890 2897 2904 2910 2916 2922 2927 2932 2938 2942 2947 2952 2955 2958 2961 2962 2963 2963 2964 2965 2966 2967 2968 2970 2971 2974 2975 2975 2974 2973 2973 2973 2972 2971 2970 2970 2970 2971 2972 2972 2972 2972 2972 2972 2972 2972 2972 2971 2971 2970 2969 2969 2968
2883 2891 2898 2905 2911 2917 2922 2928 2933 2938 2944 2948 2951 2954 2956 2957 2958 2959 2960 2962 2964 2965 2966 2967 2969 2971 2972 2973 2973 2972 2972 2971 2968 2969 2968 2969 2969 2970 2970 2970 2971 2972 2972 2972 2971 2971 2970 2970 2969 2969 2969 2968 2968 2967
2885 2893 2900 2906 2912 2916 2922 2928 2933 2939 2944 2948 2951 2952 2953 2955 2956 2957 2959 2961 2962 2964 2965 2966 2968 2970 2971 2972 2971 2971 2970 2968 2967 2964 2968 2968 2968 2968 2969 2970 2970 2970 2970 2970 2970 2969 2969 2969 2969 2968 2968 2967 2966 2965
2888 2895 2902 2908 2913 2918 2923 2928 2933 2939 2943 2945 2948 2950 2951 2953 2954 2956 2957 2959 2961 2962 2965 2967 2968 2969 2969 2970 2970 2969 2968 2966 2968 2967 2968 2967 2967 2968 2968 2969 2969 2969 2969 2968 2968 2968 2968 2968 2968 2967 2967 2966 2965 2964
2890 2896 2902 2909 2914 2921 2925 2930 2935 2940 2942 2945 2947 2949 2951 2951 2952 2953 2955 2957 2959 2961 2963 2966 2966 2967 2967 2968 2968 2967 2967 2967 2966 2966 2966 2966 2966 2967 2967 2967 2967 2967 2967 2967 2967 2968 2968 2968 2968 2966 2965 2964 2962 2961
2895 2900 2905 2910 2915 2920 2925 2931 2937 2940 2941 2944 2947 2949 2950 2950 2951 2952 2953 2955 2958 2960 2962 2964 2964 2965 2965 2966 2965 2967 2966 2966 2966 2965 2965 2965 2964 2964 2964 2964 2965 2966 2966 2967 2967 2967 2966 2966 2965 2964 2962 2961 2959 2957
2897 2902 2909 2915 2920 2924 2928 2934 2938 2939 2941 2944 2947 2948 2949 2949 2949 2950 2952 2954 2956 2958 2961 2962 2963 2962 2963 2963 2964 2964 2964 2964 2963 2963 2963 2962 2962 2961 2962 2962 2963 2964 2965 2965 2965 2964 2963 2962 2961 2959 2958 2955 2952 2950
2903 2909 2914 2918 2923 2927 2932 2936 2938 2940 2941 2944 2945 2946 2947 2947 2948 2949 2950 2952 2954 2956 2958 2958 2958 2960 2961 2962 2962 2962 2962 2962 2962 2961 2960 2960 2960 2960 2961 2962 2963 2963 2963 2963 2963 2962 2961 2960 2959 2955 2952 2950 2946 2943
2904 2909 2914 2918 2923 2928 2932 2934 2936 2939 2941 2942 2943 2944 2945 2945 2945 2947 2948 2950 2951 2952 2953 2955 2957 2958 2959 2959 2960 2960 2960 2960 2959 2959 2958 2958 2958 2959 2960 2961 2961 2961 2961 2961 2960 2958 2957 2955 2953 2951 2948 2945 2941 2938
2905 2910 2915 2921 2926 2929 2932 2934 2936 2938 2940 2940 2941 2941 2943 2944 2944 2945 2946 2947 2947 2948 2950 2952 2954 2954 2955 2956 2956 2956 2956 2956 2956 2956 2955 2956 2957 2958 2958 2959 2959 2959 2958 2958 2957 2956 2953 2950 2947 2944 2942 2938 2935 2932
2911 2916 2920 2923 2926 2929 2933 2934 2936 2936 2938 2937 2938 2939 2940 2941 2942 2943 2943 2943 2943 2944 2946 2947 2949 2950 2950 2951 2951 2951 2952 2953 2953 2953 2953 2954 2955 2955 2956 2956 2956 2956 2955 2954 2953 2951 2948 2945 2941 2938 2935 2931 2928 2924
2916 2919 2922 2924 2926 2928 2930 2931 2933 2934 2935 2936 2936 2937 2938 2938 2940 2940 2939 2939 2941 2941 2942 2943 2944 2944 2945 2946 2947 2947 2949 2950 2950 2950 2951 2952 2952 2953 2953 2953 2953 2952 2951 2949 2948 2946 2943 2939 2936 2932 2928 2925 2922 2918
2919 2923 2923 2923 2924 2926 2927 2928 2929 2931 2933 2934 2935 2935 2935 2936 2937 2936 2935 2936 2936 2937 2937 2937 2938 2938 2939 2940 2942 2944 2945 2946 2946 2947 2948 2949 2949 2950 2950 2950 2949 2947 2946 2944 2942 2939 2937 2934 2930 2926 2922 2918 2915 2911
2918 2918 2920 2919 2922 2925 2926 2926 2928 2929 2930 2931 2932 2933 2933 2934 2934 2933 2931 2932 2932 2932 2931 2931 2932 2933 2934 2937 2938 2939 2941 2942 2942 2943 2944 2946 2947 2947 2947 2946 2945 2943 2941 2939 2936 2933 2930 2927 2923 2920 2915 2912 2909 2905
2913 2914 2915 2917 2919 2921 2923 2925 2926 2927 2927 2928 2928 2930 2931 2931 2929 2928 2928 2928 2928 2927 2927 2927 2928 2929 2931 2933 2935 2936 2937 2938 2940 2941 2941 2942 2943 2942 2942 2942 2941 2940 2937 2934 2931 2928 2924 2921 2917 2914 2910 2906 2902 2898
2910 2912 2914 2916 2917 2918 2920 2921 2922 2923 2924 2924 2926 2926 2926 2925 2926 2926 2925 2925 2925 2924 2923 2923 2924 2926 2929 2930 2930 2931 2932 2934 2935 2937 2938 2939 2939 2938 2937 2937 2935 2933 2931 2928 2925 2922 2919 2915 2911 2907 2903 2899 2895 2891
2906 2908 2911 2912 2914 2915 2916 2917 2918 2919 2920 2920 2920 2920 2921 2922 2922 2922 2922 2922 2922 2921 2921 2921 2921 2923 2924 2925 2926 2927 2929 2930 2933 2934 2935 2935 2935 2935 2934 2933 2931 2929 2926 2923 2920 2916 2913 2909 2905 2901 2897 2893 2889 2884
2901 2904 2906 2907 2908 2909 2911 2912 2914 2915 2915 2915 2915 2915 2916 2917 2917 2917 2917 2917 2917 2917 2917 2917 2918 2918 2919 2920 2922 2924 2926 2928 2929 2931 2932 2931 2931 2931 2930 2928 2926 2924 2921 2918 2915 2911 2908 2904 2900 2896 2892 2888 2883 2878
2894 2897 2899 2901 2901 2903 2906 2907 2908 2908 2908 2909 2909 2909 2910 2911 2910 2910 2910 2911 2911 2912 2912 2912 2912 2913 2915 2917 2919 2920 2922 2924 2926 2927 2927 2927 2927 2926 2925 2923 2921 2918 2915 2912 2909 2906 2902 2898 2894 2890 2886 2881 2877 2872
2888 2890 2891 2892 2894 2897 2898 2899 2900 2900 2901 2901 2900 2902 2902 2902 2902 2902 2903 2903 2904 2905 2905 2906 2907 2909 2912 2913 2915 2917 2919 2921 2922 2923 2923 2923 2922 2921 2920 2918 2916 2913 2910 2908 2904 2901 2897 2893 2889 2885 2881 2876 2871 2866
2880 2881 2883 2885 2887 2888 2890 2891 2891 2891 2891 2891 2891 2893 2892 2891 2891 2893 2893 2894 2896 2897 2900 2902 2903 2904 2907 2909 2912 2914 2915 2917 2918 2919 2919 2918 2918 2917 2915 2913 2911 2909 2906 2903 2900 2896 2892 2889 2885 2880 2876 2871 2866 2861
Wind_Speed
29 23 22 23 21 21 19 21 17 14 14 14 15 14 12 10 8 7 7 9 18 15 13 17 13 12 6 6 4 3 4 3 4 5 6 9 11 12 16 5 5 10 7 11 14 7 2 15 15 15 9 3 7 12
27 22 24 26 18 18 16 16 16 15 20 20 19 17 14 11 10 9 7 11 13 7 7 9 6 5 3 1 2 4 2 3 4 5 6 7 15 12 22 7 13 3 10 12 8 6 5 12 12 8 3 4 7 10
24 24 25 24 21 17 14 15 14 15 18 22 20 18 16 13 12 10 11 14 13 12 11 9 9 6 3 1 2 1 1 4 6 7 10 8 8 14 15 13 17 15 12 8 5 9 10 16 13 10 7 5 6 7
29 26 24 23 18 22 16 13 14 16 18 20 19 17 16 14 12 12 10 16 14 12 8 7 4 7 5 4 4 4 4 8 9 11 10 9 12 7 16 16 16 19 15 11 11 9 7 9 10 10 7 7 8 9
26 28 22 22 24 17 14 13 13 17 20 20 19 16 16 14 13 12 10 13 13 11 7 4 3 4 4 10 8 8 9 10 11 10 10 11 8 9 12 7 14 20 19 11 4 4 3 5 7 7 8 7 6 7
31 30 24 20 19 16 13 12 13 17 20 19 16 15 16 15 13 12 13 13 12 12 7 4 1 6 7 10 13 17 15 12 10 7 9 8 2 6 7 8 9 15 17 12 8 4 5 5 7 6 7 5 5 6
28 27 27 23 18 16 14 11 15 18 19 16 16 15 15 14 13 12 9 9 11 10 6 4 4 2 3 5 9 10 13 13 10 9 7 5 2 4 6 8 9 12 14 7 6 5 4 5 5 5 5 5 7 6
24 29 25 28 22 19 13 12 19 21 20 17 14 14 13 13 13 12 11 8 9 9 5 3 2 4 6 8 11 8 12 14 12 11 8 5 3 4 5 4 5 10 12 6 3 1 3 3 4 5 4 4 5 6
23 27 28 30 24 18 13 14 19 19 19 16 15 13 13 14 14 14 12 10 12 7 4 5 5 4 2 5 6 7 10 10 9 9 5 3 4 7 8 5 8 10 9 7 3 1 3 2 3 3 6 7 7 9
23 23 31 29 26 25 17 15 20 20 19 16 13 13 11 11 9 12 10 10 11 12 14 16 11 9 6 5 4 3 4 5 4 5 5 8 12 14 14 15 16 13 10 11 6 3 4 3 6 9 10 9 8 8
25 23 30 28 30 27 21 19 19 22 19 15 14 12 11 13 12 8 5 5 5 5 9 8 7 13 9 5 5 4 3 3 4 3 4 3 7 7 6 7 6 8 10 6 5 6 8 8 7 7 7 8 8 9
24 28 29 32 28 23 22 19 20 17 14 20 16 14 11 12 5 5 5 5 6 3 5 4 2 10 6 4 4 5 4 3 2 2 4 4 7 5 5 5 6 7 5 5 5 6 6 6 6 7 8 9 10 10
27 32 29 27 25 22 19 20 22 18 22 19 15 13 9 8 6 7 8 6 6 7 7 5 9 9 8 5 4 2 4 5 3 4 4 6 3 4 3 3 3 3 3 3 3 5 5 6 6 6 7 7 7 7
28 33 27 26 22 21 19 24 23 23 26 17 9 10 7 6 8 8 10 5 7 5 4 9 9 9 10 4 4 3 3 4 4 5 5 3 3 3 2 2 2 1 1 2 3 4 4 4 5 5 6 6 6 7
30 33 26 22 19 20 26 27 24 32 20 9 7 6 9 7 5 6 9 10 5 8 3 6 9 8 9 5 3 3 3 3 3 1 2 1 1 2 1 1 1 3 5 5 5 5 5 5 4 3 5 6 7 9
31 30 28 26 26 28 28 26 31 32 17 5 8 7 8 8 9 10 6 10 9 7 8 9 7 4 5 3 3 4 4 3 4 3 2 2 2 1 2 3 5 6 6 4 3 3 3 4 6 7 8 10 11 13
32 32 30 28 27 26 23 26 34 24 5 4 6 8 2 4 5 9 10 10 11 10 13 7 5 4 4 4 4 4 3 7 6 5 4 2 2 3 4 5 4 4 3 3 3 4 5 6 7 10 11 13 16 17
27 28 29 30 28 26 22 28 27 10 8 9 7 5 4 3 4 6 9 12 13 14 12 8 2 6 3 4 7 5 7 5 6 5 4 7 7 7 6 4 3 2 1 2 3 5 7 9 10 12 14 16 17 18
27 28 30 24 19 22 27 27 16 10 17 16 16 11 9 6 4 5 10 13 13 14 14 11 5 7 9 9 9 9 9 8 7 7 9 10 10 6 3 1 1 2 2 3 5 8 11 13 16 18 20 22 24 24
25 22 20 20 23 20 22 13 11 7 8 10 12 12 7 5 6 8 11 12 14 15 16 19 19 13 9 7 6 6 7 7 8 11 11 9 6 3 4 4 2 1 4 7 9 11 13 15 17 19 22 23 25 25
26 27 31 31 19 20 16 7 15 10 9 7 5 9 7 4 4 7 11 13 16 19 20 19 17 16 16 15 13 12 12 11 11 11 9 5 5 5 4 1 1 4 6 9 11 14 17 19 22 23 23 22 23 24
31 37 32 21 10 18 10 7 9 15 13 11 9 11 9 7 6 11 12 14 17 18 18 17 18 18 18 17 17 17 15 12 11 10 7 5 5 4 3 3 4 6 8 11 15 17 20 22 23 24 24 24 25 25
33 34 22 15 5 13 15 18 13 14 9 6 10 13 11 9 9 7 11 14 16 16 16 17 17 18 18 17 16 14 13 12 10 9 6 6 6 5 5 5 7 9 11 14 17 20 22 23 25 26 26 26 27 28
29 23 18 5 6 9 11 11 13 15 15 11 8 11 11 11 10 11 15 14 13 14 14 14 15 17 17 17 16 14 11 10 9 8 8 8 7 7 7 7 9 11 14 17 19 21 23 25 26 26 26 27 27 27
19 18 8 10 14 9 7 8 13 15 13 11 10 9 6 8 11 14 17 17 15 14 16 17 17 16 16 16 15 13 11 10 10 11 12 11 10 9 8 8 11 13 17 19 21 24 25 25 25 26 27 27 28 28
15 10 11 10 12 13 11 9 11 13 12 12 11 9 9 10 12 9 16 15 12 14 15 16 15 14 15 12 13 13 12 12 12 14 13 11 10 9 9 10 12 15 17 20 23 26 27 27 27 27 28 29 28 27
19 10 15 18 14 15 19 17 13 11 10 11 15 13 12 7 7 12 12 11 12 12 13 13 14 14 13 14 12 11 11 12 12 13 13 12 11 11 11 11 12 15 19 21 24 25 26 27 27 27 27 28 28 28
21 23 13 13 18 16 14 13 13 11 14 16 16 14 7 7 10 10 11 11 10 10 11 12 15 15 11 11 14 16 15 15 16 15 13 12 12 12 13 14 16 19 21 23 24 25 25 26 27 27 27 27 27 27
27 21 21 21 14 14 18 19 17 16 17 17 16 16 15 15 16 16 17 16 14 13 12 12 12 12 14 16 18 17 16 16 15 13 12 12 12 12 13 15 17 20 22 24 24 25 25 26 26 26 27 27 27 28
30 29 28 24 21 24 25 22 20 18 17 17 19 20 19 18 19 19 19 18 17 17 16 15 14 17 19 19 18 16 14 14 13 12 11 12 12 13 14 17 19 21 22 22 23 24 25 25 25 25 25 26 28 30
29 32 31 29 29 28 26 25 25 24 24 23 22 23 23 22 23 23 22 22 22 20 19 18 17 18 19 18 17 16 15 13 12 12 11 11 12 13 15 18 20 21 22 23 24 24 25 25 26 26 28 29 31 32
27 27 29 32 34 33 32 31 28 27 26 26 27 26 26 26 25 26 25 24 24 23 22 20 17 16 16 17 16 16 15 13 11 11 11 11 12 14 16 18 19 20 21 22 23 24 25 24 26 27 29 31 31 31
25 28 29 28 29 28 27 25 26 28 29 29 30 28 28 28 29 28 27 26 25 24 21 16 14 16 17 17 16 15 13 12 11 11 11 11 12 14 16 18 19 20 21 22 23 23 24 25 27 29 30 29 30 30
Wind_Direction
203 213 213 203 188 191 202 199 211 205 184 187 189 185 188 193 198 204 204 180 184 189 179 180 176 181 174 172 157 280 306 327 344 8 341 348 318 328 316 11 196 182 204 229 246 222 329 4 41 91 93 57 14 2
200 190 186 184 181 191 197 206 210 198 192 195 193 189 194 201 205 207 177 165 179 174 142 156 170 178 200 318 354 330 180 310 317 338 330 340 335 335 345 356 28 38 45 86 72 96 1 30 50 74 73 325 343 8
186 186 185 188 191 204 212 213 212 210 194 192 193 192 197 201 205 203 173 170 165 152 149 154 174 169 186 310 348 303 315 254 286 332 339 336 335 334 342 357 33 38 55 103 53 58 49 40 45 42 31 28 34 52
188 190 193 193 198 203 207 225 215 202 195 194 198 194 194 198 196 205 187 179 176 167 153 184 210 226 229 250 279 332 316 285 273 293 314 313 327 340 348 337 29 23 29 89 90 46 34 29 54 64 53 69 76 70
190 196 187 190 206 205 219 223 204 192 189 194 200 194 195 196 196 203 194 192 183 186 180 191 201 301 261 254 271 290 304 319 301 293 294 316 325 343 359 354 8 14 15 16 2 339 28 51 68 78 78 79 72 66
202 202 198 184 191 197 211 207 199 191 182 189 193 192 194 196 194 188 193 207 198 202 198 212 248 305 273 264 275 293 295 294 300 307 302 314 267 334 353 319 2 1 9 12 21 52 60 80 82 74 59 43 43 49
197 202 199 193 188 205 209 208 198 189 180 177 192 194 191 189 192 188 202 210 211 206 207 219 247 209 328 291 282 283 267 274 291 313 299 299 159 293 304 292 332 357 6 13 29 58 90 88 81 75 61 44 39 33
201 197 194 198 199 195 201 199 185 177 167 171 177 185 178 183 189 183 177 175 180 175 191 240 259 290 295 283 275 279 253 252 282 288 279 268 243 245 251 259 336 357 4 9 8 337 133 111 104 74 42 39 337 329
195 196 194 192 183 187 176 170 161 160 161 168 187 179 174 184 190 183 190 190 186 210 218 238 268 299 28 304 261 266 249 260 253 260 223 229 260 231 250 269 306 313 326 347 331 215 179 129 24 341 296 301 313 311
195 195 195 188 184 180 172 159 159 160 172 183 180 170 176 175 165 183 196 210 233 238 250 264 264 242 287 297 247 238 254 246 250 269 221 230 248 257 269 287 290 288 293 311 299 244 250 262 290 292 300 311 309 307
201 194 189 189 185 170 163 167 165 174 185 181 159 150 149 156 159 166 189 208 221 241 258 287 256 231 239 255 248 250 270 229 242 221 195 238 259 265 263 289 300 291 289 287 277 274 277 287 302 302 304 306 309 308
187 177 171 169 168 168 172 174 172 173 167 149 138 143 153 150 156 165 205 203 223 244 265 298 294 180 195 241 232 230 245 261 252 195 213 238 264 273 282 286 280 280 274 251 257 277 284 296 310 315 319 318 316 316
176 170 169 170 170 174 183 170 173 170 158 143 152 160 158 172 186 196 205 200 200 209 226 224 171 179 210 230 261 257 226 229 256 220 213 243 256 275 282 284 277 291 309 330 322 310 308 304 305 310 312 322 330 326
168 171 171 174 173 179 179 175 173 168 155 148 151 182 190 192 202 197 193 213 212 226 239 208 209 203 202 210 243 259 259 253 248 199 232 219 272 287 263 239 259 273 300 313 295 289 298 312 329 339 340 342 342 350
165 168 170 172 179 180 174 172 169 165 153 151 176 194 212 213 197 196 207 216 210 220 229 189 182 194 191 212 225 271 259 242 257 138 119 222 280 287 254 262 285 311 315 313 315 318 323 329 334 351 8 6 359 351
161 166 168 166 160 161 165 172 174 168 180 155 183 189 201 219 234 226 221 206 202 201 182 165 174 191 195 210 220 239 288 340 19 42 28 356 342 283 265 279 292 297 297 311 337 345 13 27 19 5 350 339 330 326
166 167 164 168 167 168 172 175 169 174 188 165 164 156 214 258 238 209 218 203 188 187 176 177 198 200 187 213 224 229 266 320 344 354 354 346 295 270 272 285 298 318 336 355 29 29 10 356 343 335 331 327 325 323
163 168 170 168 170 174 179 179 180 194 209 197 171 189 317 276 240 220 205 190 184 182 190 214 121 194 210 212 245 288 302 305 331 331 334 341 328 309 298 298 307 325 34 39 14 350 337 336 337 331 328 323 320 320
163 165 167 168 175 174 168 172 180 214 225 236 222 248 269 275 246 216 193 188 189 199 205 220 234 220 242 265 286 292 298 309 317 316 315 314 313 303 282 241 152 109 43 359 347 342 338 335 334 330 329 327 325 325
155 156 162 164 148 156 166 179 183 165 195 222 231 233 250 280 243 215 199 200 204 209 217 227 235 247 269 285 298 311 315 310 312 315 309 298 279 217 174 158 143 37 352 346 341 334 331 331 329 326 326 327 324 324
162 160 164 153 138 163 179 189 194 193 199 247 236 223 234 291 248 219 214 212 217 224 232 244 252 256 260 270 277 290 294 297 304 305 296 270 208 182 172 172 336 336 335 335 332 327 327 327 326 327 325 325 321 320
163 165 162 161 158 175 184 191 202 227 245 251 254 223 235 278 253 232 233 231 235 242 246 251 254 259 263 270 279 281 282 286 292 295 282 225 201 203 226 269 305 315 322 327 325 326 325 323 324 324 324 322 320 319
159 158 154 147 134 184 213 224 235 231 225 246 236 222 244 261 263 244 234 241 247 251 257 257 256 259 263 265 268 270 273 282 287 286 248 220 223 235 259 284 299 313 324 326 325 324 323 325 323 322 323 322 320 319
165 165 173 185 178 186 214 222 223 221 233 245 243 241 253 254 258 257 257 262 263 266 268 266 263 259 257 257 259 266 273 272 275 264 229 228 239 250 265 287 305 313 322 323 322 322 323 324 322 321 320 319 318 318
166 186 206 197 195 212 242 248 221 221 231 233 245 247 255 262 256 262 270 277 283 280 272 264 259 262 251 251 253 258 258 262 258 236 231 238 247 259 277 295 304 314 320 322 323 323 322 321 320 320 319 319 318 317
196 206 206 202 200 205 214 219 220 225 234 237 240 251 267 267 261 260 274 284 287 285 274 263 255 251 246 242 242 247 250 253 247 234 235 248 263 273 283 297 308 310 317 320 320 321 322 323 322 321 320 319 319 319
202 204 208 209 213 223 226 236 250 251 253 241 249 254 257 254 255 263 283 285 287 285 269 258 249 247 239 236 247 253 251 248 241 236 242 256 266 275 285 294 303 309 316 319 319 320 320 321 321 321 320 320 321 320
214 216 219 219 221 226 233 243 247 249 251 255 259 252 236 229 258 276 278 290 300 300 284 270 257 251 245 234 236 239 237 230 230 239 252 264 275 286 297 307 313 317 320 320 320 320 321 321 322 323 323 322 322 322
226 227 232 239 240 239 239 243 251 263 270 264 265 269 269 277 276 274 274 278 283 293 295 287 268 244 234 233 237 241 240 233 233 243 257 270 280 289 298 306 312 316 319 320 321 322 323 323 324 325 325 325 326 325
232 235 239 241 245 244 249 257 267 277 274 266 263 267 270 271 271 271 272 274 276 278 280 278 263 239 231 235 241 243 240 234 238 247 258 269 282 290 299 307 313 317 319 321 322 322 323 325 326 326 326 327 327 327
235 236 240 245 249 253 258 263 266 267 266 265 266 268 272 273 274 273 269 266 267 270 271 267 263 251 241 237 235 234 233 235 242 255 265 273 282 293 303 310 316 319 322 323 325 326 327 328 329 331 331 331 329 328
235 236 239 244 249 253 256 258 260 260 262 263 265 270 271 272 270 270 267 263 260 260 261 261 260 251 237 233 231 230 232 238 248 259 269 279 290 301 309 314 319 321 323 325 327 329 330 331 332 333 332 331 331 331
233 237 240 243 246 249 251 253 255 257 259 261 263 265 265 268 268 268 265 257 254 254 256 258 246 228 220 220 220 224 228 238 252 263 272 283 296 306 312 318 321 324 326 328 330 331 332 334 334 334 334 334 335 336